Wind_Speed
41 40 40 41 41 40 40 39 39 39 39 37 36 34 32 32 31 31 32 33 34 35 35 35 34 33 31 29 27 26 26 26 26 27 29 30 31 32 35 36 36 36 37
45 44 43 42 42 41 40 39 39 39 38 37 36 34 32 30 29 28 28 28 29 29 30 30 29 28 26 25 24 24 25 25 25 27 29 31 31 31 31 32 34 34 35
49 47 45 44 43 42 41 40 39 39 38 37 35 34 31 29 27 25 24 25 25 24 25 25 24 23 23 22 23 25 25 24 24 26 25 25 24 24 23 23 24 24 25
53 51 49 47 45 44 42 41 40 39 38 36 35 33 30 28 26 24 22 21 21 22 22 22 22 23 22 23 24 24 24 23 23 22 21 20 19 18 18 17 18 18 19
57 56 54 52 49 47 45 42 41 39 37 35 34 31 28 26 24 21 20 19 19 20 21 22 22 23 21 21 22 22 22 21 21 20 19 16 15 15 14 14 15 16 17
61 61 60 57 54 50 47 44 42 40 37 34 32 29 26 24 22 20 19 17 16 17 19 21 22 22 21 21 21 21 21 20 18 17 15 14 13 13 13 13 14 16 18
68 67 65 62 59 55 50 47 43 40 36 33 31 28 25 22 21 18 16 15 15 15 16 18 21 21 21 21 19 19 18 16 15 13 12 11 11 11 12 13 14 16 18
74 72 70 67 63 59 53 48 44 40 36 32 30 27 24 21 20 18 15 13 12 12 13 16 18 19 20 20 18 17 15 13 12 11 10 10 10 11 12 12 13 15 16
76 73 71 68 64 60 55 49 45 41 37 32 29 26 23 20 19 17 14 12 10 10 12 13 14 15 17 17 16 14 12 11 10 10 9 9 9 9 10 10 12 14 15
66 63 60 59 58 55 53 50 46 42 38 34 29 26 23 20 18 16 14 12 10 10 11 12 12 13 14 14 13 12 11 10 10 9 8 8 7 8 8 9 11 12 14
50 48 46 46 48 49 49 49 46 43 39 35 30 27 23 20 17 15 13 12 11 11 11 12 13 13 13 13 13 12 11 11 10 9 8 7 6 6 7 8 9 11 13
38 38 39 40 41 42 45 48 47 43 40 35 31 28 24 20 17 15 14 13 12 12 12 13 14 14 14 13 13 12 11 10 9 8 7 6 5 5 6 7 8 10 12
36 36 37 38 37 37 42 46 47 44 40 36 32 29 25 22 19 17 15 14 13 13 14 14 14 14 13 13 12 11 10 9 9 7 6 5 5 5 5 6 7 9 11
38 36 36 34 33 34 41 46 46 44 41 37 33 29 26 22 19 18 17 17 16 16 15 15 14 14 13 13 12 11 10 9 8 7 6 5 4 4 4 4 6 8 10
38 36 35 33 31 32 39 45 46 43 41 37 33 30 26 23 21 20 20 19 19 18 16 15 15 14 14 13 12 11 9 9 8 7 6 5 4 3 2 3 5 7 10
38 35 32 30 29 30 36 41 44 42 40 38 35 32 29 27 25 23 22 21 20 18 17 16 15 14 13 12 11 10 9 9 8 7 6 5 4 3 2 3 5 8 11
36 32 29 28 27 29 36 39 43 41 41 40 37 34 31 28 25 23 22 21 20 18 17 15 14 13 12 12 11 10 10 9 9 7 7 6 5 3 2 3 5 8 11
33 28 27 26 26 30 35 37 41 43 43 41 39 35 32 30 27 24 22 21 19 18 17 15 14 13 12 11 11 10 10 10 9 9 8 7 6 5 3 4 6 8 11
29 26 25 25 25 29 35 38 41 44 44 42 39 36 33 31 28 25 22 21 19 17 16 14 13 12 11 11 11 11 11 11 11 10 10 10 8 7 6 6 7 9 12
25 24 23 24 26 32 35 39 42 44 43 43 40 36 33 30 27 24 22 21 18 16 14 13 12 11 11 11 11 11 12 12 12 12 12 12 11 10 9 9 10 11 13
22 21 22 25 28 31 36 40 41 42 43 42 38 35 32 30 28 26 24 21 19 17 14 13 12 11 11 11 12 12 13 13 14 14 14 14 13 13 12 12 13 13 14
20 22 24 27 30 33 37 40 40 41 42 41 39 36 34 32 30 27 24 21 19 16 14 13 12 11 11 12 13 13 13 14 15 15 16 16 16 16 16 16 16 17 17
20 23 27 29 31 34 38 39 39 41 42 40 38 35 33 31 28 26 23 20 18 16 14 14 13 12 12 12 13 13 14 14 15 16 17 17 18 18 18 19 19 19 20
23 27 29 31 34 35 36 37 38 40 40 39 36 33 31 30 28 25 22 20 17 16 14 14 13 12 12 12 13 13 13 14 15 16 17 18 18 19 20 20 21 21 22
27 30 32 34 34 35 36 37 38 40 39 37 34 31 30 28 26 23 21 18 16 15 13 13 12 12 12 12 12 11 12 12 13 15 16 17 18 19 20 20 21 22 23
31 32 33 34 34 35 35 35 36 37 36 34 32 30 28 26 24 22 19 17 15 14 12 12 12 11 11 11 10 10 10 11 12 13 15 17 18 19 19 19 21 22 24
Wind_Direction
303 304 305 306 308 310 311 314 315 317 318 316 313 308 302 297 291 284 275 270 267 265 265 265 265 265 263 263 261 255 249 247 244 244 242 242 245 245 245 245 245 241 238
302 303 303 304 305 307 308 310 312 315 317 316 314 311 307 303 297 290 281 275 270 266 263 262 261 260 258 255 250 243 240 239 238 236 235 237 240 242 242 243 242 239 237
299 301 301 302 302 303 305 307 309 311 314 315 314 312 309 306 302 295 287 279 271 265 261 256 256 252 248 241 237 233 233 232 230 225 226 231 235 236 237 238 239 239 237
296 297 298 298 299 300 302 303 304 307 310 311 312 311 309 307 304 299 290 279 269 262 256 251 246 240 237 231 228 222 222 221 221 221 223 225 228 228 229 232 235 238 240
293 293 294 295 295 295 296 297 299 302 305 307 308 308 307 307 305 300 289 277 264 254 244 238 233 228 220 218 217 214 213 213 216 217 216 218 220 223 227 233 241 247 251
288 288 289 289 290 290 290 290 292 295 297 300 302 304 303 303 303 298 286 276 259 244 233 228 223 215 210 210 208 208 210 210 210 210 210 216 223 231 238 245 251 255 259
285 285 284 284 284 283 282 282 283 286 288 291 294 296 297 296 296 295 286 273 260 247 240 230 220 213 209 207 204 203 200 201 203 208 215 223 231 238 246 252 257 260 263
282 281 281 280 279 277 275 274 274 275 278 282 284 286 288 287 289 289 283 271 258 247 239 231 224 217 210 201 197 196 195 195 199 206 216 225 235 243 248 254 260 265 268
281 280 279 277 275 272 268 264 264 265 267 270 272 274 277 278 280 278 272 261 252 243 230 222 214 207 197 191 188 188 189 192 197 207 217 226 233 240 248 258 267 273 278
282 281 278 275 270 266 260 254 253 254 256 259 260 262 264 267 271 270 258 249 240 226 213 204 197 192 186 182 181 184 189 192 197 203 209 215 226 241 256 268 277 283 287
280 278 277 274 269 260 250 242 242 243 246 249 249 250 251 255 260 258 246 233 221 210 201 194 190 187 184 181 183 185 187 189 193 198 205 216 233 253 269 280 289 294 298
279 278 278 276 272 260 243 232 232 235 238 239 239 239 239 242 246 245 231 216 207 198 192 188 184 182 182 182 182 184 187 192 196 202 211 228 246 264 279 292 300 307 313
284 283 283 279 273 256 236 225 224 228 230 231 230 229 230 233 235 231 220 209 200 191 185 182 181 182 184 185 187 190 194 199 205 213 223 236 251 269 285 301 311 321 327
284 283 283 279 270 253 232 220 219 220 222 226 222 220 221 223 223 217 207 199 191 186 184 184 186 189 191 192 194 197 202 208 214 222 229 237 246 262 291 312 327 336 341
282 282 280 274 266 251 231 219 213 212 214 215 211 211 213 214 213 206 198 194 190 188 188 189 192 194 196 198 202 206 211 216 221 225 227 230 234 250 289 321 341 350 353
280 279 274 266 258 243 226 214 207 204 202 202 200 202 207 208 207 201 195 191 190 189 190 192 195 197 199 202 206 212 218 221 220 219 221 224 227 240 279 329 348 352 356
276 273 265 258 247 233 219 210 204 199 197 195 195 198 204 204 202 199 194 192 191 192 193 195 197 198 201 205 212 219 223 222 217 216 219 224 229 236 268 330 347 352 356
269 261 256 249 238 224 213 203 197 195 195 192 192 196 199 199 197 196 193 193 193 194 195 197 199 201 205 210 217 224 228 225 222 220 223 229 235 244 269 310 333 344 350
255 250 246 238 227 210 202 197 193 191 191 188 190 194 196 195 193 192 191 192 192 194 197 200 202 205 210 217 224 230 233 230 227 226 229 235 244 255 271 293 314 327 336
240 237 231 221 210 199 197 194 192 190 187 185 188 192 193 192 190 188 189 191 192 195 199 204 208 213 219 226 232 237 238 236 233 234 236 241 250 261 273 286 301 312 322
225 220 210 202 195 191 190 190 188 186 184 183 186 188 188 187 187 187 189 191 193 197 203 210 217 224 231 236 242 244 244 242 240 241 243 248 256 266 276 286 294 301 310
208 201 194 187 184 183 185 185 183 182 181 182 185 186 186 186 187 188 190 192 196 201 209 219 226 233 240 245 249 251 251 248 245 245 248 254 261 270 277 284 291 296 302
187 181 176 174 173 176 180 181 180 180 180 182 184 185 186 187 188 189 192 196 200 207 216 225 233 240 245 249 254 256 256 252 251 251 253 257 264 272 279 284 289 294 299
166 164 164 166 168 172 174 175 177 178 179 182 183 184 184 186 189 191 195 199 204 211 220 230 238 243 247 251 255 257 259 256 254 256 259 264 270 276 281 285 288 293 298
154 154 156 159 164 168 170 172 174 177 179 180 181 183 185 187 189 192 196 202 209 216 226 235 241 243 245 248 251 256 258 257 258 262 266 271 276 281 284 286 289 294 299
145 148 151 155 161 165 168 170 173 176 178 180 182 184 186 188 192 196 201 206 213 222 230 236 238 238 241 244 249 254 257 259 263 268 273 277 281 285 287 289 292 297 301
Height
5769 5766 5763 5759 5756 5753 5750 5746 5741 5735 5730 5724 5719 5714 5710 5706 5703 5700 5699 5698 5698 5698 5699 5700 5701 5702 5703 5705 5706 5708 5710 5713 5715 5718 5719 5721 5724 5725 5726 5728 5730 5733 5735
5759 5756 5753 5750 5747 5744 5741 5737 5733 5728 5722 5717 5712 5707 5702 5698 5695 5692 5690 5689 5689 5689 5689 5690 5691 5693 5694 5696 5698 5700 5703 5706 5709 5711 5712 5714 5716 5718 5719 5721 5723 5725 5728
5748 5745 5742 5739 5736 5734 5731 5728 5724 5720 5715 5710 5705 5700 5696 5692 5688 5685 5683 5681 5680 5681 5681 5682 5683 5685 5687 5690 5692 5693 5696 5699 5702 5704 5706 5708 5710 5712 5714 5716 5718 5720 5723
5735 5733 5731 5728 5726 5724 5721 5719 5715 5712 5708 5703 5699 5694 5690 5686 5682 5679 5677 5675 5674 5674 5675 5676 5677 5680 5681 5684 5686 5688 5690 5693 5696 5699 5701 5704 5705 5708 5710 5712 5714 5717 5719
5720 5718 5717 5716 5714 5713 5711 5709 5706 5704 5700 5697 5692 5688 5685 5681 5678 5675 5672 5670 5669 5669 5669 5671 5673 5674 5676 5679 5681 5683 5686 5689 5691 5694 5697 5700 5702 5704 5706 5708 5711 5713 5715
5704 5702 5701 5700 5700 5700 5699 5698 5696 5695 5692 5689 5686 5683 5679 5676 5673 5671 5668 5667 5665 5665 5666 5667 5669 5670 5672 5675 5678 5680 5683 5686 5688 5691 5694 5696 5699 5701 5703 5705 5707 5709 5711
5685 5684 5683 5683 5683 5684 5685 5685 5685 5684 5683 5681 5679 5676 5674 5672 5669 5667 5665 5664 5663 5662 5663 5664 5666 5667 5670 5672 5674 5677 5680 5683 5686 5689 5691 5694 5696 5699 5701 5702 5703 5705 5705
5663 5662 5661 5662 5664 5666 5668 5670 5672 5672 5673 5672 5671 5670 5668 5666 5665 5663 5662 5661 5660 5660 5660 5662 5664 5665 5667 5670 5672 5675 5678 5681 5684 5687 5690 5692 5694 5696 5697 5698 5699 5700 5701
5638 5637 5637 5638 5641 5645 5649 5653 5656 5659 5660 5661 5662 5662 5661 5660 5660 5659 5658 5657 5657 5657 5658 5660 5661 5663 5665 5668 5670 5673 5676 5679 5682 5685 5687 5689 5691 5692 5694 5695 5696 5696 5696
5612 5612 5612 5613 5616 5622 5628 5634 5639 5644 5647 5650 5652 5653 5654 5654 5654 5654 5654 5654 5654 5655 5656 5658 5660 5662 5664 5666 5669 5672 5675 5678 5681 5683 5685 5687 5688 5690 5690 5691 5691 5691 5691
5591 5591 5591 5592 5594 5599 5605 5614 5621 5627 5633 5638 5641 5644 5646 5647 5648 5649 5649 5650 5651 5652 5654 5656 5658 5661 5663 5666 5668 5671 5674 5676 5679 5681 5683 5684 5686 5687 5687 5687 5687 5687 5686
5574 5573 5573 5574 5575 5578 5585 5594 5603 5611 5619 5625 5630 5634 5638 5640 5642 5644 5645 5647 5648 5649 5651 5654 5656 5659 5662 5665 5667 5670 5672 5675 5677 5679 5681 5682 5683 5683 5683 5683 5683 5682 5681
5559 5558 5557 5557 5557 5560 5567 5576 5587 5596 5605 5613 5620 5625 5629 5633 5636 5638 5641 5643 5644 5647 5649 5652 5655 5658 5661 5664 5666 5668 5671 5673 5675 5677 5678 5679 5679 5680 5680 5680 5679 5678 5677
5545 5544 5543 5542 5543 5545 5551 5560 5571 5581 5592 5602 5609 5616 5621 5626 5630 5633 5636 5639 5641 5644 5647 5650 5654 5657 5660 5662 5665 5667 5669 5671 5672 5674 5675 5676 5676 5677 5677 5676 5676 5674 5673
5530 5530 5529 5529 5529 5531 5537 5546 5556 5569 5581 5592 5601 5608 5614 5620 5624 5629 5632 5635 5638 5641 5645 5648 5651 5655 5658 5660 5662 5665 5666 5668 5670 5671 5672 5672 5673 5674 5673 5673 5672 5671 5669
5515 5515 5515 5516 5518 5520 5525 5535 5546 5558 5570 5581 5591 5600 5607 5613 5618 5624 5628 5632 5636 5639 5642 5645 5649 5652 5655 5658 5660 5662 5664 5665 5667 5668 5669 5670 5670 5671 5670 5670 5669 5667 5666
5500 5502 5503 5505 5507 5511 5517 5526 5537 5549 5561 5573 5582 5592 5600 5607 5613 5619 5624 5629 5633 5636 5639 5643 5646 5649 5652 5655 5657 5659 5661 5662 5664 5665 5666 5667 5667 5668 5667 5667 5666 5665 5663
5486 5489 5492 5495 5498 5504 5511 5520 5531 5542 5555 5566 5576 5586 5594 5602 5609 5615 5621 5626 5630 5633 5637 5640 5643 5646 5649 5652 5654 5656 5658 5659 5660 5661 5663 5663 5664 5664 5664 5664 5663 5662 5660
5472 5477 5481 5485 5490 5497 5506 5515 5525 5537 5549 5561 5572 5581 5589 5597 5604 5611 5617 5623 5627 5631 5634 5637 5641 5643 5646 5648 5651 5653 5654 5655 5657 5658 5659 5660 5661 5661 5661 5661 5660 5658 5656
5461 5467 5473 5478 5485 5493 5502 5511 5522 5534 5545 5557 5567 5578 5586 5595 5602 5609 5615 5620 5624 5628 5632 5635 5638 5641 5643 5645 5647 5649 5650 5652 5653 5654 5655 5656 5657 5657 5657 5657 5656 5654 5652
5452 5459 5466 5473 5481 5490 5500 5510 5520 5531 5543 5554 5565 5575 5585 5593 5600 5606 5612 5617 5622 5626 5629 5632 5635 5638 5640 5642 5644 5645 5646 5648 5649 5650 5651 5652 5653 5653 5653 5652 5651 5650 5648
5446 5454 5462 5470 5480 5489 5498 5509 5520 5531 5542 5553 5563 5572 5581 5589 5597 5603 5609 5615 5620 5624 5627 5630 5633 5635 5637 5638 5640 5641 5642 5643 5644 5646 5647 5647 5648 5648 5648 5647 5646 5644 5643
5444 5452 5461 5470 5480 5490 5500 5511 5521 5532 5542 5552 5562 5571 5580 5588 5595 5602 5608 5613 5617 5621 5624 5627 5629 5631 5633 5635 5636 5637 5637 5639 5640 5641 5642 5643 5643 5643 5642 5641 5640 5639 5637
5445 5454 5463 5473 5483 5494 5504 5513 5523 5533 5543 5553 5563 5572 5580 5587 5594 5600 5606 5611 5615 5619 5622 5624 5626 5628 5629 5630 5631 5632 5633 5634 5635 5636 5637 5637 5637 5637 5636 5635 5634 5632 5631
5450 5459 5469 5478 5488 5498 5507 5517 5526 5536 5545 5554 5563 5572 5579 5586 5593 5598 5604 5608 5612 5615 5618 5620 5622 5624 5625 5626 5627 5628 5629 5629 5630 5631 5631 5632 5631 5631 5630 5629 5627 5626 5624
5459 5468 5476 5485 5494 5503 5512 5521 5529 5538 5547 5556 5564 5572 5579 5585 5591 5597 5602 5606 5609 5612 5615 5617 5618 5620 5621 5622 5623 5624 5624 5625 5626 5626 5626 5626 5625 5624 5623 5622 5621 5619 5617